Salt Lake City, UT

8:38 AM MDT on June 25, 2017 (GMT -0600)
Salt Lake City International

Weather History for KSLC - January, 2012

Change the Weather History Date:

Friday, January 20, 2012

  Actual Average Record
Temperature  
Mean Temperature 45 °F 30 °F  
Max Temperature 52 °F 38 °F 58 °F (1953)
Min Temperature 37 °F 22 °F -20 °F (1883)
Degree Days  
Heating Degree Days 20 35  
Month to date heating degree days 659 719  
Since 1 July heating degree days 2863 3013  
Cooling Degree Days 0 0  
Month to date cooling degree days 0 0  
Year to date cooling degree days 0 0  
Moisture  
Dew Point 31 °F    
Average Humidity 65    
Maximum Humidity 85    
Minimum Humidity 44    
Precipitation  
Precipitation T in 0.04 in 0.61 in (1875)
Month to date precipitation 0.54 0.83  
Year to date precipitation 0.54 0.83  
Snow  
Snow 0.00 in 0.40 in 9.70 in (1962)
Month to date snowfall 4.4 8.5  
Since 1 July snowfall 10.0 30.7  
Snow Depth 0.00 in    
Sea Level Pressure  
Sea Level Pressure 29.89 in    
Wind  
Wind Speed 6 mph (SE)    
Max Wind Speed 14 mph    
Max Gust Speed 17 mph    
Visibility 10 miles    
Events Rain    
T = Trace of Precipitation, MM = Missing Value Source: NWS Daily Summary

Daily Weather History Graph

Daily Weather History Graph

Search for Another Location

Airport or City:

Trip Planner

Search our weather history database for the weather conditions in past years. The results will help you decide how hot, cold, wet, or windy it might be!

Date:

Astronomy

Jan. 20, 2012 Rise Set
Actual Time 7:47 AM MST 5:30 PM MST
Civil Twilight 7:17 AM MST 6:00 PM MST
Nautical Twilight 6:44 AM MST 6:33 PM MST
Astronomical Twilight 6:11 AM MST 7:06 PM MST
Moon 5:29 AM MST (1/20) 3:05 PM MST (1/20)
Length of Visible Light 10h 42m
Length of Day
9h 42m
Waning Crescent, 8% of the Moon is Illuminated
Jan 20
Waning Crescent
Jan 23
New
Jan 30
First Quarter
Feb 7
Full
Feb 14
Last Quarter

Hourly Weather History & Observations

Time (MST) Temp. Windchill Dew Point Humidity Pressure Visibility Wind Dir Wind Speed Gust Speed Precip Events Conditions
12:53 AM 41.0 °F 37.1 °F 32.0 °F 70% 29.82 in 10.0 mi SSE 5.8 mph - N/A   Overcast
1:53 AM 39.0 °F 35.7 °F 30.9 °F 73% 29.85 in 10.0 mi West 4.6 mph - N/A   Overcast
2:53 AM 39.0 °F 34.0 °F 33.1 °F 79% 29.87 in 10.0 mi North 6.9 mph - N/A   Overcast
3:53 AM 39.0 °F - 33.1 °F 79% 29.87 in 10.0 mi Calm Calm - 0.00 in   Overcast
4:53 AM 37.9 °F 33.5 °F 32.0 °F 79% 29.88 in 10.0 mi SE 5.8 mph - N/A   Mostly Cloudy
5:53 AM 39.0 °F 31.4 °F 33.1 °F 79% 29.90 in 10.0 mi SSE 12.7 mph - 0.00 in Rain Light Rain
6:53 AM 39.9 °F 35.1 °F 33.1 °F 77% 29.91 in 10.0 mi SE 6.9 mph - 0.00 in Rain Light Rain
7:53 AM 41.0 °F 36.4 °F 32.0 °F 70% 29.94 in 10.0 mi ESE 6.9 mph - 0.00 in   Mostly Cloudy
8:53 AM 41.0 °F 37.1 °F 33.1 °F 73% 29.98 in 10.0 mi North 5.8 mph - N/A   Mostly Cloudy
9:53 AM 44.1 °F 42.5 °F 35.1 °F 71% 30.01 in 10.0 mi ENE 3.5 mph - 0.00 in Rain Light Rain
10:53 AM 46.0 °F 42.5 °F 36.0 °F 68% 30.01 in 10.0 mi SE 6.9 mph - 0.00 in   Mostly Cloudy
11:53 AM 48.0 °F - 34.0 °F 58% 29.99 in 10.0 mi SE 6.9 mph - N/A   Mostly Cloudy
12:53 PM 48.9 °F - 32.0 °F 52% 29.98 in 10.0 mi Variable 4.6 mph - N/A   Mostly Cloudy
1:53 PM 51.1 °F - 32.0 °F 48% 29.95 in 10.0 mi NNE 3.5 mph - N/A   Mostly Cloudy
2:53 PM 51.1 °F - 30.9 °F 46% 29.94 in 10.0 mi Variable 6.9 mph - N/A   Mostly Cloudy
3:53 PM 50.0 °F - 30.9 °F 48% 29.93 in 10.0 mi Calm Calm - N/A   Mostly Cloudy
4:53 PM 48.9 °F - 30.9 °F 50% 29.92 in 10.0 mi ESE 3.5 mph - N/A   Mostly Cloudy
5:53 PM 46.9 °F - 30.9 °F 54% 29.89 in 10.0 mi South 4.6 mph - N/A   Mostly Cloudy
6:53 PM 48.9 °F - 28.9 °F 46% 29.86 in 10.0 mi South 10.4 mph - N/A   Mostly Cloudy
7:53 PM 48.9 °F - 28.0 °F 44% 29.83 in 10.0 mi South 9.2 mph - N/A   Overcast
8:53 PM 50.0 °F - 26.1 °F 39% 29.80 in 10.0 mi South 11.5 mph - N/A   Mostly Cloudy
9:53 PM 51.1 °F - 24.1 °F 35% 29.77 in 10.0 mi South 13.8 mph - N/A   Mostly Cloudy
10:53 PM 52.0 °F - 23.0 °F 32% 29.74 in 10.0 mi South 13.8 mph 25.3 mph N/A   Overcast
11:53 PM 53.1 °F - 24.1 °F 32% 29.72 in 10.0 mi South 13.8 mph - N/A   Overcast